| << 16.8. | 18.8. >> |
|
Windrichtung in Grad |
Windgeschw. in m/s |
Windspitzen in m/s |
Temp.Minima in °C |
Temperatur in °C |
Temp.Maxima in °C |
Luftfeuchte in % |
Luftdruck in hPa |
Taupunkt in °C |
Niederschlag in mm |
|
|---|---|---|---|---|---|---|---|---|---|---|
| ▲ Maxima | 1,3 | 3,3 | 18,8 | 19,1 | 19,4 | 94,3 | 1003,8 | 15,6 | 0,1 | |
| Ø Mittelwert | 271,8 | 0,5 | 1,4 | 15,6 | 15,8 | 16,0 | 81,1 | 1003,1 | 14,0 | 0,0 |
| ▼ Minima | 0,1 | 0,6 | 12,8 | 13,0 | 13,2 | 68,5 | 1002,4 | 12,0 | 0,0 | |
| ∑ Summe | 0,1 |
| Uhrzeit (MEZ) | Windrichtung in Grad | Windgeschw. in m/s | Windspitzen in m/s | Temp.Minima in °C | Temperatur in °C | Temp.Maxima in °C | Luftfeuchte in % | Luftdruck in hPa | Taupunkt in °C | Niederschlag in mm |
|---|---|---|---|---|---|---|---|---|---|---|
| 00:00 | 245,4 | 0,4 | 0,8 | 16,8 | 17,1 | 17,3 | 68,6 | 1003,3 | 12,7 | 0,0 |
| 00:10 | 238,4 | 0,6 | 1,0 | 16,7 | 16,9 | 17,0 | 68,9 | 1003,4 | 12,5 | 0,0 |
| 00:20 | 237,7 | 0,9 | 1,2 | 16,9 | 17,0 | 17,1 | 68,5 | 1003,2 | 12,5 | 0,0 |
| 00:30 | 241,5 | 0,8 | 1,3 | 16,5 | 16,8 | 16,9 | 69,4 | 1003,1 | 12,5 | 0,0 |
| 00:40 | 245,2 | 0,8 | 1,1 | 16,1 | 16,2 | 16,5 | 71,5 | 1002,9 | 12,4 | 0,0 |
| 00:50 | 244,5 | 0,9 | 1,2 | 15,9 | 16,0 | 16,2 | 72,2 | 1002,9 | 12,4 | 0,0 |
| 01:00 | 246,3 | 0,9 | 1,2 | 15,4 | 15,6 | 15,9 | 73,6 | 1003,1 | 12,3 | 0,0 |
| 01:10 | 244,2 | 0,6 | 0,9 | 15,2 | 15,3 | 15,4 | 74,8 | 1003,1 | 12,3 | 0,0 |
| 01:20 | 240,2 | 0,8 | 1,1 | 15,2 | 15,4 | 15,5 | 74,5 | 1003,0 | 12,3 | 0,0 |
| 01:30 | 236,5 | 0,5 | 0,8 | 15,1 | 15,2 | 15,4 | 75,3 | 1003,1 | 12,3 | 0,0 |
| 01:40 | 238,4 | 0,6 | 1,4 | 15,4 | 15,6 | 15,8 | 73,7 | 1003,1 | 12,4 | 0,0 |
| 01:50 | 241,4 | 0,7 | 1,2 | 15,5 | 15,7 | 15,8 | 73,0 | 1003,0 | 12,3 | 0,0 |
| 02:00 | 255,6 | 0,6 | 1,0 | 15,3 | 15,5 | 15,7 | 73,2 | 1003,1 | 12,2 | 0,0 |
| 02:10 | 259,4 | 0,5 | 0,9 | 15,0 | 15,2 | 15,4 | 74,3 | 1003,0 | 12,2 | 0,0 |
| 02:20 | 246,2 | 0,6 | 1,0 | 15,1 | 15,2 | 15,3 | 74,3 | 1003,0 | 12,1 | 0,0 |
| 02:30 | 248,7 | 0,6 | 1,0 | 14,9 | 15,1 | 15,3 | 74,6 | 1002,9 | 12,1 | 0,0 |
| 02:40 | 240,4 | 0,7 | 1,2 | 14,8 | 15,0 | 15,1 | 75,0 | 1002,7 | 12,0 | 0,0 |
| 02:50 | 241,0 | 0,7 | 1,2 | 14,7 | 14,9 | 15,0 | 75,3 | 1002,7 | 12,0 | 0,0 |
| 03:00 | 244,8 | 0,5 | 0,7 | 14,7 | 14,8 | 14,8 | 75,5 | 1002,7 | 12,0 | 0,0 |
| 03:10 | 244,9 | 0,5 | 0,7 | 14,7 | 14,8 | 14,8 | 75,7 | 1002,6 | 12,0 | 0,0 |
| 03:20 | 234,3 | 0,6 | 0,9 | 14,6 | 14,7 | 14,8 | 76,3 | 1002,5 | 12,1 | 0,0 |
| 03:30 | 241,0 | 0,3 | 0,9 | 14,6 | 14,8 | 15,0 | 75,9 | 1002,5 | 12,1 | 0,0 |
| 03:40 | 239,0 | 0,7 | 1,2 | 14,7 | 15,0 | 15,1 | 75,6 | 1002,5 | 12,1 | 0,0 |
| 03:50 | 264,3 | 0,4 | 1,0 | 14,7 | 14,9 | 15,0 | 75,9 | 1002,5 | 12,2 | 0,0 |
| 04:00 | 247,7 | 0,7 | 1,4 | 14,7 | 14,9 | 15,1 | 76,2 | 1002,5 | 12,2 | 0,0 |
| 04:10 | 253,8 | 0,7 | 1,2 | 14,7 | 14,9 | 15,1 | 76,5 | 1002,5 | 12,3 | 0,0 |
| 04:20 | 262,9 | 0,6 | 1,4 | 14,6 | 14,8 | 15,0 | 77,5 | 1002,7 | 12,4 | 0,0 |
| 04:30 | 253,3 | 0,7 | 1,8 | 14,6 | 14,8 | 15,0 | 78,5 | 1002,8 | 12,6 | 0,0 |
| 04:40 | 262,3 | 0,6 | 1,4 | 14,4 | 14,6 | 14,8 | 80,1 | 1002,6 | 12,7 | 0,0 |
| 04:50 | 250,7 | 1,0 | 2,5 | 14,0 | 14,4 | 14,7 | 82,0 | 1002,8 | 12,8 | 0,1 |
| 05:00 | 244,9 | 1,0 | 2,0 | 13,8 | 14,1 | 14,4 | 84,8 | 1002,7 | 13,0 | 0,0 |
| 05:10 | 269,0 | 0,4 | 1,1 | 13,5 | 13,7 | 13,9 | 87,0 | 1002,6 | 13,2 | 0,0 |
| 05:20 | 253,5 | 0,4 | 0,9 | 13,4 | 13,6 | 13,8 | 88,8 | 1002,6 | 13,4 | 0,0 |
| 05:30 | 255,8 | 0,5 | 1,3 | 13,3 | 13,5 | 13,7 | 90,2 | 1002,6 | 13,6 | 0,0 |
| 05:40 | 238,1 | 0,5 | 1,0 | 13,4 | 13,5 | 13,7 | 90,9 | 1002,4 | 13,7 | 0,0 |
| 05:50 | 263,2 | 0,5 | 1,0 | 13,3 | 13,5 | 13,7 | 91,5 | 1002,7 | 13,8 | 0,0 |
| 06:00 | 261,4 | 0,8 | 2,0 | 13,4 | 13,6 | 13,8 | 92,5 | 1003,0 | 14,0 | 0,0 |
| 06:10 | 257,1 | 0,8 | 1,8 | 13,3 | 13,6 | 13,8 | 93,2 | 1003,0 | 14,0 | 0,0 |
| 06:20 | 258,5 | 0,6 | 1,4 | 13,3 | 13,5 | 13,6 | 93,7 | 1003,0 | 14,1 | 0,0 |
| 06:30 | 254,7 | 0,8 | 1,8 | 13,2 | 13,5 | 13,7 | 93,9 | 1003,0 | 14,1 | 0,0 |
| 06:40 | 256,2 | 0,5 | 1,1 | 13,0 | 13,1 | 13,3 | 93,7 | 1002,9 | 13,8 | 0,0 |
| 06:50 | 264,8 | 0,7 | 1,4 | 12,9 | 13,1 | 13,2 | 93,5 | 1003,0 | 13,6 | 0,0 |
| 07:00 | 261,2 | 0,4 | 1,2 | 12,8 | 13,0 | 13,2 | 94,0 | 1003,1 | 13,7 | 0,0 |
| 07:10 | 254,0 | 0,2 | 0,9 | 13,0 | 13,2 | 13,4 | 94,1 | 1003,2 | 14,0 | 0,0 |
| 07:20 | 248,6 | 0,3 | 0,7 | 13,3 | 13,4 | 13,6 | 94,0 | 1003,2 | 14,2 | 0,0 |
| 07:30 | 255,8 | 0,3 | 0,9 | 13,3 | 13,4 | 13,6 | 93,4 | 1003,1 | 14,1 | 0,0 |
| 07:40 | 238,3 | 0,3 | 0,8 | 13,3 | 13,4 | 13,6 | 92,9 | 1003,1 | 14,0 | 0,0 |
| 07:50 | 217,4 | 0,1 | 0,6 | 13,4 | 13,6 | 13,8 | 92,6 | 1003,0 | 14,2 | 0,0 |
| Uhrzeit (MEZ) | Windrichtung in Grad | Windgeschw. in m/s | Windspitzen in m/s | Temp.Minima in °C | Temperatur in °C | Temp.Maxima in °C | Luftfeuchte in % | Luftdruck in hPa | Taupunkt in °C | Niederschlag in mm |
|---|---|---|---|---|---|---|---|---|---|---|
| 08:00 | 263,5 | 0,3 | 0,8 | 13,7 | 13,9 | 14,1 | 91,9 | 1002,9 | 14,3 | 0,0 |
| 08:10 | 270,9 | 0,2 | 0,8 | 13,7 | 13,8 | 14,0 | 91,7 | 1002,9 | 14,2 | 0,0 |
| 08:20 | 257,8 | 0,3 | 0,8 | 13,8 | 14,0 | 14,2 | 91,6 | 1002,8 | 14,4 | 0,0 |
| 08:30 | 265,1 | 0,3 | 1,1 | 14,0 | 14,2 | 14,4 | 91,3 | 1002,8 | 14,5 | 0,0 |
| 08:40 | 245,7 | 0,4 | 1,1 | 14,0 | 14,2 | 14,4 | 90,8 | 1002,9 | 14,4 | 0,0 |
| 08:50 | 266,3 | 0,4 | 1,1 | 14,1 | 14,3 | 14,5 | 90,9 | 1002,9 | 14,5 | 0,0 |
| 09:00 | 243,5 | 0,3 | 0,9 | 14,2 | 14,4 | 14,6 | 90,9 | 1003,0 | 14,6 | 0,0 |
| 09:10 | 281,9 | 0,3 | 0,9 | 14,2 | 14,3 | 14,5 | 90,2 | 1002,9 | 14,5 | 0,0 |
| 09:20 | 272,4 | 0,2 | 0,9 | 14,3 | 14,5 | 14,7 | 90,0 | 1002,9 | 14,6 | 0,0 |
| 09:30 | 239,6 | 0,3 | 0,9 | 14,5 | 14,7 | 14,9 | 89,8 | 1003,0 | 14,7 | 0,0 |
| 09:40 | 278,6 | 0,4 | 1,1 | 14,7 | 14,8 | 14,9 | 89,3 | 1003,1 | 14,7 | 0,0 |
| 09:50 | 270,3 | 0,4 | 1,5 | 14,5 | 14,7 | 15,0 | 89,4 | 1003,1 | 14,6 | 0,0 |
| 10:00 | 287,9 | 0,4 | 1,2 | 14,5 | 14,6 | 14,9 | 89,7 | 1003,2 | 14,6 | 0,0 |
| 10:10 | 324,7 | 0,3 | 0,9 | 14,4 | 14,6 | 14,8 | 89,8 | 1003,2 | 14,6 | 0,0 |
| 10:20 | 358,3 | 0,5 | 1,6 | 14,3 | 14,5 | 14,7 | 90,3 | 1003,3 | 14,5 | 0,0 |
| 10:30 | 19,8 | 0,6 | 1,4 | 13,7 | 14,0 | 14,5 | 91,2 | 1003,3 | 14,2 | 0,0 |
| 10:40 | 25,9 | 0,4 | 1,2 | 13,8 | 13,9 | 14,1 | 92,2 | 1003,4 | 14,4 | 0,0 |
| 10:50 | 327,4 | 0,5 | 1,2 | 13,9 | 14,0 | 14,2 | 92,4 | 1003,5 | 14,5 | 0,0 |
| 11:00 | 0,9 | 0,4 | 1,1 | 13,7 | 13,9 | 14,0 | 92,8 | 1003,6 | 14,4 | 0,0 |
| 11:10 | 354,2 | 0,5 | 1,5 | 13,5 | 13,8 | 14,1 | 93,2 | 1003,7 | 14,3 | 0,0 |
| 11:20 | 296,1 | 0,4 | 1,6 | 13,5 | 13,7 | 14,0 | 93,7 | 1003,8 | 14,4 | 0,0 |
| 11:30 | 17,1 | 0,4 | 1,4 | 13,5 | 13,6 | 13,8 | 93,9 | 1003,8 | 14,3 | 0,0 |
| 11:40 | 355,9 | 0,5 | 1,1 | 13,5 | 13,7 | 13,8 | 93,9 | 1003,7 | 14,4 | 0,0 |
| 11:50 | 312,9 | 0,4 | 1,1 | 13,5 | 13,7 | 14,0 | 94,3 | 1003,7 | 14,5 | 0,0 |
| 12:00 | 281,5 | 0,8 | 1,8 | 13,8 | 14,0 | 14,3 | 94,0 | 1003,7 | 14,6 | 0,0 |
| 12:10 | 253,0 | 0,6 | 1,9 | 14,0 | 14,4 | 14,7 | 93,8 | 1003,7 | 15,0 | 0,0 |
| 12:20 | 288,2 | 0,7 | 1,8 | 14,3 | 14,7 | 15,1 | 92,4 | 1003,7 | 15,0 | 0,0 |
| 12:30 | 260,8 | 0,6 | 2,3 | 14,9 | 15,5 | 16,3 | 91,2 | 1003,6 | 15,6 | 0,0 |
| 12:40 | 261,0 | 1,0 | 3,0 | 15,3 | 15,8 | 16,3 | 87,1 | 1003,6 | 15,1 | 0,0 |
| 12:50 | 271,0 | 0,8 | 2,3 | 15,2 | 15,5 | 15,7 | 88,1 | 1003,6 | 15,1 | 0,0 |
| 13:00 | 263,7 | 1,0 | 2,0 | 15,2 | 15,4 | 15,6 | 88,2 | 1003,6 | 14,9 | 0,0 |
| 13:10 | 263,0 | 0,8 | 2,5 | 15,2 | 15,7 | 16,1 | 88,3 | 1003,6 | 15,2 | 0,0 |
| 13:20 | 262,9 | 0,7 | 2,2 | 15,8 | 16,2 | 16,6 | 85,4 | 1003,6 | 15,3 | 0,0 |
| 13:30 | 261,4 | 0,5 | 1,7 | 16,1 | 16,3 | 16,6 | 85,4 | 1003,6 | 15,5 | 0,0 |
| 13:40 | 268,3 | 0,3 | 1,2 | 16,3 | 16,6 | 17,1 | 84,2 | 1003,6 | 15,6 | 0,0 |
| 13:50 | 252,3 | 1,0 | 2,1 | 16,5 | 16,9 | 17,3 | 82,1 | 1003,6 | 15,3 | 0,0 |
| 14:00 | 257,1 | 0,7 | 2,3 | 16,6 | 17,0 | 17,2 | 81,8 | 1003,6 | 15,3 | 0,0 |
| 14:10 | 292,5 | 0,5 | 1,6 | 17,1 | 17,5 | 17,9 | 80,1 | 1003,7 | 15,6 | 0,0 |
| 14:20 | 262,7 | 0,8 | 2,3 | 17,4 | 17,6 | 17,9 | 78,3 | 1003,6 | 15,2 | 0,0 |
| 14:30 | 247,5 | 1,3 | 2,6 | 17,4 | 17,7 | 18,0 | 77,5 | 1003,6 | 15,0 | 0,0 |
| 14:40 | 262,5 | 1,2 | 3,0 | 17,1 | 17,5 | 17,7 | 77,5 | 1003,6 | 14,8 | 0,0 |
| 14:50 | 253,5 | 1,3 | 3,3 | 17,4 | 17,8 | 18,1 | 77,0 | 1003,6 | 15,0 | 0,0 |
| 15:00 | 262,7 | 0,9 | 2,7 | 17,2 | 17,5 | 17,7 | 77,5 | 1003,5 | 14,9 | 0,0 |
| 15:10 | 261,2 | 1,2 | 2,6 | 17,4 | 17,6 | 17,9 | 76,6 | 1003,4 | 14,8 | 0,0 |
| 15:20 | 273,8 | 0,6 | 1,7 | 17,5 | 17,9 | 18,3 | 75,5 | 1003,5 | 15,0 | 0,0 |
| 15:30 | 248,1 | 0,9 | 2,9 | 17,8 | 18,2 | 18,6 | 74,1 | 1003,4 | 14,9 | 0,0 |
| 15:40 | 265,6 | 0,7 | 2,8 | 17,8 | 18,1 | 18,6 | 74,5 | 1003,4 | 15,0 | 0,0 |
| 15:50 | 260,1 | 1,2 | 3,1 | 17,9 | 18,3 | 18,5 | 72,9 | 1003,4 | 14,6 | 0,0 |
| Uhrzeit (MEZ) | Windrichtung in Grad | Windgeschw. in m/s | Windspitzen in m/s | Temp.Minima in °C | Temperatur in °C | Temp.Maxima in °C | Luftfeuchte in % | Luftdruck in hPa | Taupunkt in °C | Niederschlag in mm |
|---|---|---|---|---|---|---|---|---|---|---|
| 16:00 | 261,9 | 0,9 | 3,0 | 18,0 | 18,3 | 18,6 | 72,5 | 1003,3 | 14,6 | 0,0 |
| 16:10 | 281,7 | 0,4 | 2,1 | 18,0 | 18,1 | 18,5 | 71,9 | 1003,3 | 14,5 | 0,0 |
| 16:20 | 295,0 | 0,9 | 2,0 | 18,2 | 18,4 | 18,6 | 71,2 | 1003,2 | 14,5 | 0,0 |
| 16:30 | 290,4 | 0,7 | 2,1 | 18,2 | 18,4 | 18,8 | 71,5 | 1003,2 | 14,5 | 0,0 |
| 16:40 | 320,5 | 0,6 | 1,6 | 18,2 | 18,5 | 18,8 | 71,8 | 1003,1 | 14,7 | 0,0 |
| 16:50 | 280,3 | 0,5 | 1,4 | 18,5 | 18,8 | 19,4 | 70,9 | 1003,1 | 14,8 | 0,0 |
| 17:00 | 282,9 | 0,6 | 1,8 | 18,8 | 19,1 | 19,4 | 70,0 | 1003,1 | 14,9 | 0,0 |
| 17:10 | 291,8 | 0,6 | 1,8 | 18,8 | 19,0 | 19,3 | 69,5 | 1003,1 | 14,7 | 0,0 |
| 17:20 | 290,6 | 0,3 | 1,8 | 18,6 | 18,8 | 19,1 | 69,7 | 1003,1 | 14,6 | 0,0 |
| 17:30 | 309,4 | 0,5 | 2,2 | 18,6 | 18,8 | 19,2 | 71,0 | 1003,1 | 14,9 | 0,0 |
| 17:40 | 338,9 | 0,4 | 1,3 | 18,6 | 18,7 | 18,9 | 71,3 | 1003,1 | 14,9 | 0,0 |
| 17:50 | 20,6 | 0,4 | 1,3 | 18,1 | 18,4 | 18,7 | 72,0 | 1003,1 | 14,7 | 0,0 |
| 18:00 | 36,3 | 0,2 | 0,9 | 18,1 | 18,3 | 18,6 | 72,3 | 1003,1 | 14,7 | 0,0 |
| 18:10 | 351,4 | 0,3 | 1,2 | 18,2 | 18,3 | 18,6 | 72,0 | 1003,1 | 14,7 | 0,0 |
| 18:20 | 345,8 | 0,5 | 1,5 | 18,0 | 18,3 | 18,6 | 72,7 | 1003,0 | 14,7 | 0,0 |
| 18:30 | 247,8 | 0,4 | 1,5 | 17,9 | 18,1 | 18,3 | 74,5 | 1003,0 | 15,0 | 0,0 |
| 18:40 | 294,6 | 0,3 | 1,2 | 17,8 | 17,9 | 18,1 | 74,6 | 1003,0 | 14,9 | 0,0 |
| 18:50 | 24,5 | 0,3 | 1,3 | 17,8 | 18,0 | 18,3 | 74,8 | 1002,9 | 15,0 | 0,0 |
| 19:00 | 21,2 | 0,5 | 1,7 | 17,5 | 17,8 | 18,2 | 75,6 | 1002,9 | 14,9 | 0,0 |
| 19:10 | 350,0 | 0,4 | 1,1 | 17,4 | 17,6 | 17,8 | 76,0 | 1002,9 | 14,8 | 0,0 |
| 19:20 | 10,0 | 0,5 | 1,6 | 17,3 | 17,5 | 17,7 | 75,9 | 1002,9 | 14,7 | 0,0 |
| 19:30 | 342,6 | 0,3 | 1,1 | 17,1 | 17,3 | 17,5 | 76,2 | 1002,9 | 14,6 | 0,0 |
| 19:40 | 8,1 | 0,3 | 1,3 | 17,1 | 17,2 | 17,5 | 76,0 | 1002,9 | 14,5 | 0,0 |
| 19:50 | 6,9 | 0,4 | 1,5 | 17,0 | 17,1 | 17,3 | 75,8 | 1003,0 | 14,3 | 0,0 |
| 20:00 | 26,2 | 0,5 | 1,1 | 17,0 | 17,1 | 17,3 | 75,6 | 1003,1 | 14,3 | 0,0 |
| 20:10 | 352,4 | 0,3 | 1,0 | 16,9 | 17,0 | 17,1 | 75,4 | 1003,1 | 14,1 | 0,0 |
| 20:20 | 353,5 | 0,2 | 0,8 | 16,9 | 17,0 | 17,2 | 75,5 | 1003,0 | 14,3 | 0,0 |
| 20:30 | 244,6 | 0,1 | 0,7 | 17,0 | 17,1 | 17,3 | 75,0 | 1003,1 | 14,3 | 0,0 |
| 20:40 | 18,4 | 0,2 | 0,6 | 17,2 | 17,3 | 17,4 | 74,6 | 1003,2 | 14,3 | 0,0 |
| 20:50 | 35,9 | 0,3 | 1,1 | 17,1 | 17,3 | 17,5 | 74,1 | 1003,2 | 14,2 | 0,0 |
| 21:00 | 307,1 | 0,2 | 0,6 | 16,9 | 17,0 | 17,2 | 74,8 | 1003,1 | 14,1 | 0,0 |
| 21:10 | 300,5 | 0,2 | 0,9 | 17,0 | 17,0 | 17,2 | 74,5 | 1003,0 | 14,1 | 0,0 |
| 21:20 | 331,7 | 0,1 | 0,6 | 16,9 | 17,0 | 17,2 | 75,0 | 1003,0 | 14,1 | 0,0 |
| 21:30 | 245,5 | 0,2 | 0,6 | 16,9 | 17,0 | 17,2 | 74,9 | 1003,0 | 14,1 | 0,0 |
| 21:40 | 251,6 | 0,2 | 0,6 | 16,6 | 16,8 | 17,0 | 76,6 | 1003,1 | 14,3 | 0,0 |
| 21:50 | 229,2 | 0,3 | 1,0 | 16,6 | 16,7 | 17,0 | 76,9 | 1003,1 | 14,2 | 0,0 |
| 22:00 | 240,9 | 0,5 | 0,9 | 16,5 | 16,7 | 16,8 | 77,8 | 1003,2 | 14,3 | 0,0 |
| 22:10 | 248,3 | 0,4 | 1,0 | 16,1 | 16,3 | 16,5 | 79,0 | 1003,2 | 14,2 | 0,0 |
| 22:20 | 255,8 | 0,2 | 0,7 | 16,1 | 16,2 | 16,4 | 78,8 | 1003,2 | 14,2 | 0,0 |
| 22:30 | 236,6 | 0,3 | 1,0 | 16,1 | 16,3 | 16,5 | 78,3 | 1003,1 | 14,1 | 0,0 |
| 22:40 | 231,6 | 0,4 | 0,7 | 16,1 | 16,2 | 16,3 | 78,3 | 1003,0 | 14,0 | 0,0 |
| 22:50 | 251,9 | 0,4 | 0,7 | 16,0 | 16,2 | 16,3 | 78,4 | 1002,9 | 14,0 | 0,0 |
| 23:00 | 245,7 | 0,3 | 0,7 | 15,8 | 15,9 | 16,1 | 79,7 | 1003,0 | 14,0 | 0,0 |
| 23:10 | 241,6 | 0,5 | 0,8 | 15,7 | 15,8 | 16,0 | 80,4 | 1003,0 | 14,0 | 0,0 |
| 23:20 | 237,0 | 0,5 | 0,7 | 15,6 | 15,7 | 15,8 | 81,3 | 1003,0 | 14,0 | 0,0 |
| 23:30 | 249,5 | 0,3 | 0,7 | 15,6 | 15,6 | 15,7 | 81,1 | 1002,9 | 14,0 | 0,0 |
| 23:40 | 253,7 | 0,4 | 0,7 | 15,5 | 15,7 | 15,8 | 81,3 | 1002,7 | 14,0 | 0,0 |
| 23:50 | 244,8 | 0,4 | 0,6 | 15,3 | 15,4 | 15,5 | 82,6 | 1002,8 | 14,1 | 0,0 |
| << 16.8. | 18.8. >> |